sat.trackr.live / text

‹ back to catalog

CSC-2

NORAD 58021 · 2023-155F

PAYLOAD ACTIVE UNKNOWN

§ Identity

Operator
Country
NETH
Launch date
2023-10-09
Launch site
FRGUI
Launch vehicle
Mass (kg)
RCS (m²)

External: N2YO · Heavens-Above · Gunter

§ Orbital elements

Epoch: 2026-09-21T22:32:14.973216Z

Period
94.53 min
Inclination
97.5356°
Eccentricity
0.0003453
Mean motion
15.23310301 rev/d
Perigee alt
493.5 km
Apogee alt
498.2 km
Semi-major
6,874.0 km
B*
2.6257e-4
RAAN
341.9227°
Arg perigee
249.8196°
Mean anomaly
110.2670°
Rev number
16,290

§ Raw data

CSC-21 58021U 23155F   26264.93906219  .00006160  00000+0  26257-3 0  99982 58021  97.5356 341.9227 0003453 249.8196 110.2670 15.23310301162909

JSON: /api/v1/satellites/58021 · /tle

For live sub-satellite position, see the globe view (requires WebGL).

§ Visibility from observer

Set your observer location to see the next 7 days of passes ≥ 10°. The values pass through the URL so the page stays shareable.

No JS? Fill the form by hand. The geolocation button needs JavaScript.

§ Radio — SatNOGS DB

ModeDescriptionDownlinkUplink
FM Mode S 2.245 GHz
BPSK Mode U 401.250 MHz

2 transmitters · refreshed weekly from db.satnogs.org